STARLINK-30381, 57785

Orbit data source: Space-Track

STARLINK-30381, 57785 is a payload satellite in LEO that was launched on Mon, 04 Sep 2023 UTC via an FALCON 9 launch vehicle from the Air Force Eastern Test Range (AFETR). Payload-class satellites include a variety of spacecraft equipped with specific instruments for various scientific and technological missions. These include communications satellites like Starlink; space stations such as the ISS; scientific satellites like the Hubble; Earth observation satellites from companies like Planet Labs, Umbra, and HawkEye 360; GPS; miniature CubeSats for education and research; and military/defense satellites.

Loading next visibility...
Identifier
57785, 2023-134Q
Orbit
LEO
Last TLE update
7 hours ago
Origin
Manufacturer
SpaceX/Seattle
Mission
Operational Commercial Communications
Bus & Motor
STARLINK V2M, Unknown motor
Mass
730 kg wet, ~700 kg dry
Launch date (UTC)
2023-09-04 (2 years ago)
Launch vehicle
FALCON 9
Launch site
Air Force Eastern Test Range (AFETR)
Object type
Payload
Rocket body
Debris
Shape & HBR
Box + 2 Pan, 29 m
Radar Cross Section
33.884 m², Large (>1 m²)

Expand to show TLE details & history

TLE from 7 hours ago
0 STARLINK-30381
1 57785U 23134Q   25151.08080528 -.00015655  00000-0 -11457-2 0  9994
2 57785  43.0025 292.6821 0001542 278.4733  81.5934 15.02559482 96897
Epoch: 2025-05-31T01:56Z
TLE epoch observation values (Epoch: 2025-05-31T01:56:21.576Z)
Latitude
-0.00004°
Longitude
14.76584°
Altitude
558.629 km
Speed
7.584 km/s
True Right ascension
19h 30m 43s
True Declination
0° 00' 00"
Sunlit
Object was in full shadow at epoch
Visualization orbit readout
Latitude
38.46847°
Longitude
135.28599°
Altitude
562.234 km
Speed
7.585 km/s
Apparent Right ascension
04h 54m 29s
Apparent Declination
1° 20' 30"
Sunlit
Object is in daylight
Visualization observer readout
Local Sidereal Time
18:25:41
Azimuth
32.447° NE
Elevation
-43.776°
Doppler factor
1
Orbital elements
Apogee altitude
562.001 km
Perigee altitude
559.861 km
Semi-major axis
6,939.068 km
Eccentricity
0.00015
Inclination
43.0025°
RAAN
292.6821°
Arg. of periapsis
278.4733°
True anomaly
Unknown
Mean anomaly
81.5934°
Eccentric anomaly
Unknown
Mean motion
3.75484 °/min
Orbital period
95.88 mins
BSTAR
-0.0011457
Loading maneuver chart data...
Loading SW <> Apogee altitude chart data...
Loading historical data...
Loading historical data...
Loading historical data...
Loading historical data...
Loading historical data...
Loading historical data...
Loading historical data...

STARLINK-30381 Visibility forecast

Observer location: undefined°, undefined°

Span
Click to sort rows by Start time (UTC) header in descending order
Start Az.
Max El. time (UTC)
Max El. Az.
Max El.
End time (UTC)
End Az.
6 mins2025-05-31 13:20:43.407Z232.064° WSW2025-05-31 13:23:43.407Z130.022° SE41.129°2025-05-31 13:26:43.407Z77.017° E
6 mins2025-05-31 15:01:43.407Z280.189° WNW2025-05-31 15:03:43.407Z323.361° NNW39.335°2025-05-31 15:07:43.407Z71.854° E
6 mins2025-05-31 16:42:43.407Z293.924° NW2025-05-31 16:44:43.407Z335.272° NNW41.462°2025-05-31 16:48:43.407Z93.74° ESE
5 mins2025-05-31 18:23:43.407Z266.426° W2025-05-31 18:25:43.407Z209.062° SW35.037°2025-05-31 18:28:43.407Z141.568° SSE
|